Weather History for St. Francis, KS

Change the Weather History Date:

Saturday, February 16, 2013

  Actual Average Record
Temperature  
Mean Temperature 40 °F -  
Max Temperature 60 °F 46 °F 60 °F (2013)
Min Temperature 20 °F 20 °F 20 °F (2013)
Degree Days  
Heating Degree Days 25    
Moisture  
Dew Point 17 °F    
Average Humidity 50    
Maximum Humidity 84    
Minimum Humidity 17    
Precipitation  
Precipitation 0.00 in - - ()
Sea Level Pressure  
Sea Level Pressure 30.07 in    
Wind  
Wind Speed 10 mph (West)    
Max Wind Speed 20 mph    
Max Gust Speed 29 mph    
Visibility 10 miles    
Events      
Averages and records for this station are not official NWS values.
T = Trace of Precipitation, MM = Missing Value Source: NWS Daily Summary

Daily Weather History Graph

Daily Weather History Graph

Search for Another Location

Airport:

Trip Planner

Search our weather history database for the weather conditions in past years. The results will help you decide how hot, cold, wet, or windy it might be!

Date:

Astronomy

Feb. 16, 2013 Rise Set
Actual Time 7:38 AM CST 6:24 PM CST
Civil Twilight 7:10 AM CST 6:52 PM CST
Nautical Twilight 6:38 AM CST 7:24 PM CST
Astronomical Twilight 6:07 AM CST 7:55 PM CST
Moon 10:53 AM CST (2/16) 12:25 AM CST (2/16)
Length of Visible Light 11h 42m
Length of Day
10h 46m
Waxing Crescent, 39% of the Moon is Illuminated
Feb 16
Waxing Crescent
Feb 17
First Quarter
Feb 25
Full
Mar 4
Last Quarter
Mar 11
New

Hourly Weather History & Observations

Time (CST) Temp. Windchill Dew Point Humidity Pressure Visibility Wind Dir Wind Speed Gust Speed Precip Events Conditions
12:15 AM 20.8 °F 11.2 °F 16.3 °F 83% 30.27 in 10.0 mi SW 8.1 mph - N/A   Clear
12:35 AM 21.2 °F 12.6 °F 17.1 °F 84% 30.27 in 10.0 mi SW 6.9 mph - N/A   Scattered Clouds
12:55 AM 22.1 °F 12.0 °F 18.0 °F 84% 30.26 in 10.0 mi SW 9.2 mph - N/A   Overcast
1:15 AM 22.5 °F 11.7 °F 18.1 °F 83% 30.25 in 10.0 mi SW 10.4 mph - N/A   Overcast
1:35 AM 23.0 °F 10.6 °F 18.3 °F 82% 30.25 in 10.0 mi WSW 13.8 mph 18.4 mph N/A   Overcast
1:55 AM 23.7 °F 12.1 °F 18.5 °F 80% 30.24 in 10.0 mi SW 12.7 mph - N/A   Overcast
2:15 AM 24.4 °F 13.5 °F 18.3 °F 78% 30.24 in 10.0 mi SW 11.5 mph - N/A   Overcast
2:35 AM 24.8 °F 12.9 °F 17.8 °F 75% 30.23 in 10.0 mi WSW 13.8 mph - N/A   Overcast
2:55 AM 24.1 °F 13.7 °F 16.7 °F 73% 30.21 in 10.0 mi WSW 10.4 mph - N/A   Mostly Cloudy
3:15 AM 22.5 °F 13.2 °F 16.2 °F 77% 30.19 in 10.0 mi SW 8.1 mph - N/A   Scattered Clouds
3:35 AM 21.2 °F 11.7 °F 16.3 °F 82% 30.19 in 10.0 mi WSW 8.1 mph - N/A   Scattered Clouds
3:55 AM 22.8 °F 13.6 °F 17.6 °F 80% 30.17 in 10.0 mi SW 8.1 mph - N/A   Mostly Cloudy
4:15 AM 22.1 °F 12.8 °F 17.1 °F 81% 30.15 in 10.0 mi SW 8.1 mph - N/A   Scattered Clouds
4:35 AM 23.0 °F 12.4 °F 17.8 °F 80% 30.15 in 10.0 mi SW 10.4 mph - N/A   Scattered Clouds
4:55 AM 23.9 °F 14.2 °F 18.1 °F 79% 30.14 in 10.0 mi WSW 9.2 mph - N/A   Mostly Cloudy
5:15 AM 24.8 °F 15.3 °F 19.0 °F 79% 30.13 in 10.0 mi WSW 9.2 mph - N/A   Mostly Cloudy
5:35 AM 24.8 °F 13.4 °F 19.2 °F 79% 30.12 in 10.0 mi WSW 12.7 mph - N/A   Overcast
6:15 AM 25.7 °F 15.7 °F 19.0 °F 76% 30.10 in 10.0 mi WSW 10.4 mph - N/A   Scattered Clouds
6:55 AM 25.7 °F 14.6 °F 18.5 °F 74% 30.10 in 10.0 mi SW 12.7 mph - N/A   Mostly Cloudy
7:15 AM 26.1 °F 15.6 °F 18.5 °F 73% 30.10 in 10.0 mi SW 11.5 mph - N/A   Mostly Cloudy
7:35 AM 26.4 °F 16.6 °F 18.9 °F 73% 30.10 in 10.0 mi SW 10.4 mph - N/A   Overcast
7:55 AM 25.5 °F 15.5 °F 18.1 °F 74% 30.10 in 10.0 mi SW 10.4 mph - N/A   Mostly Cloudy
8:15 AM 25.7 °F 16.4 °F 18.0 °F 73% 30.10 in 10.0 mi SW 9.2 mph - N/A   Scattered Clouds
8:35 AM 28.8 °F 20.2 °F 18.7 °F 66% 30.10 in 10.0 mi WSW 9.2 mph - N/A   Clear
8:55 AM 34.3 °F 27.7 °F 19.6 °F 55% 30.10 in 10.0 mi WSW 8.1 mph - N/A   Clear
9:15 AM 41.0 °F 32.8 °F 18.5 °F 40% 30.10 in 10.0 mi West 16.1 mph 20.7 mph N/A   Clear
9:35 AM 42.4 °F 35.7 °F 17.4 °F 37% 30.10 in 10.0 mi West 12.7 mph 23.0 mph N/A   Clear
12:15 PM 56.8 °F - 17.2 °F 21% 30.08 in 10.0 mi NNW 18.4 mph 27.6 mph N/A   Clear
12:35 PM 57.4 °F - 17.4 °F 21% 30.07 in 10.0 mi NNW 17.3 mph 23.0 mph N/A   Clear
12:55 PM 58.1 °F - 17.4 °F 20% 30.06 in 10.0 mi NW 15.0 mph 25.3 mph N/A   Clear
1:15 PM 58.8 °F - 17.2 °F 20% 30.05 in 10.0 mi NW 13.8 mph 24.2 mph N/A   Clear
1:35 PM 59.0 °F - 16.3 °F 19% 30.04 in 10.0 mi NW 18.4 mph 28.8 mph N/A   Clear
1:55 PM 59.5 °F - 16.0 °F 18% 30.03 in 10.0 mi NW 18.4 mph 25.3 mph N/A   Scattered Clouds
2:15 PM 59.5 °F - 15.6 °F 18% 30.03 in 10.0 mi NW 12.7 mph 24.2 mph N/A   Scattered Clouds
2:35 PM 60.1 °F - 15.8 °F 18% 30.02 in 10.0 mi WNW 13.8 mph 23.0 mph N/A   Clear
2:55 PM 60.1 °F - 15.8 °F 18% 30.02 in 10.0 mi NW 17.3 mph 25.3 mph N/A   Scattered Clouds
3:15 PM 60.1 °F - 15.8 °F 18% 30.01 in 10.0 mi NNW 19.6 mph 25.3 mph N/A   Clear
3:35 PM 59.9 °F - 15.6 °F 18% 30.01 in 10.0 mi NW 12.7 mph 21.9 mph N/A   Clear
3:55 PM 60.1 °F - 15.1 °F 17% 30.01 in 10.0 mi NW 11.5 mph 24.2 mph N/A   Clear
4:15 PM 59.5 °F - 14.9 °F 17% 30.01 in 10.0 mi NW 17.3 mph 25.3 mph N/A   Clear
4:35 PM 59.0 °F - 15.1 °F 18% 30.00 in 10.0 mi NNW 10.4 mph - N/A   Clear
4:55 PM 58.6 °F - 14.9 °F 18% 30.00 in 10.0 mi NNW 13.8 mph 18.4 mph N/A   Clear
5:15 PM 58.1 °F - 14.9 °F 18% 29.99 in 10.0 mi NW 11.5 mph 17.3 mph N/A   Clear
5:35 PM 56.8 °F - 15.3 °F 20% 29.99 in 10.0 mi NNW 8.1 mph 17.3 mph N/A   Clear
5:55 PM 55.0 °F - 15.8 °F 21% 29.99 in 10.0 mi NNW 6.9 mph - N/A   Clear
6:15 PM 51.4 °F - 16.3 °F 25% 29.99 in 10.0 mi North 6.9 mph - N/A   Clear
6:35 PM 48.7 °F - 16.5 °F 28% 29.99 in 10.0 mi NNW 3.5 mph - N/A   Clear
6:55 PM 49.1 °F - 17.1 °F 28% 29.99 in 10.0 mi NNW 3.5 mph - N/A   Clear
7:15 PM 47.1 °F - 16.7 °F 30% 29.99 in 10.0 mi WNW 3.5 mph - N/A   Clear
7:35 PM 45.1 °F 42.8 °F 16.7 °F 32% 30.00 in 10.0 mi West 4.6 mph - N/A   Clear
7:55 PM 43.0 °F 39.5 °F 17.1 °F 35% 29.99 in 10.0 mi West 5.8 mph - N/A   Clear
8:15 PM 42.1 °F 39.2 °F 16.7 °F 36% 29.99 in 10.0 mi West 4.6 mph - N/A   Clear
8:35 PM 38.1 °F 35.7 °F 17.2 °F 43% 29.99 in 10.0 mi SW 3.5 mph - N/A   Clear
8:55 PM 36.1 °F 31.4 °F 17.8 °F 47% 29.99 in 10.0 mi SW 5.8 mph - N/A   Clear
9:15 PM 35.1 °F 28.6 °F 17.6 °F 49% 29.99 in 10.0 mi SW 8.1 mph - N/A   Clear
9:35 PM 33.6 °F 26.8 °F 18.0 °F 53% 29.99 in 10.0 mi WSW 8.1 mph - N/A   Clear
9:55 PM 32.9 °F 27.5 °F 18.0 °F 54% 29.98 in 10.0 mi WSW 5.8 mph - N/A   Clear
10:15 PM 33.3 °F 25.1 °F 17.6 °F 53% 29.99 in 10.0 mi SW 10.4 mph - N/A   Clear
10:35 PM 31.5 °F 24.2 °F 17.8 °F 57% 29.98 in 10.0 mi WSW 8.1 mph - N/A   Clear
10:55 PM 32.0 °F 24.8 °F 17.6 °F 55% 29.98 in 10.0 mi WSW 8.1 mph - N/A   Clear
11:15 PM 29.7 °F 20.7 °F 16.9 °F 59% 29.99 in 10.0 mi SW 10.4 mph - N/A   Clear
11:35 PM 31.1 °F 23.1 °F 17.6 °F 57% 29.98 in 10.0 mi WSW 9.2 mph - N/A   Clear
11:55 PM 30.2 °F 22.6 °F 16.7 °F 57% 29.97 in 10.0 mi SW 8.1 mph - N/A   Clear